Back to catalog

FENGYUN 1C DEB

AliveSSO
NORAD 31757·DEBRIS·🇨🇳 China

Launched May 10, 1999 from Taiyuan Satellite Launch Center

Loading…

Next Passes (next 24 hours)

TLE

FreshSource: Space-Track

Epoch: Sep 14, 2026, 06:40 UTC

1 31757U 99025CFG 26257.27797218  .00000335  00000-0  17880-3 0  9991
2 31757  98.7514 276.4284 0216530  26.6651 334.5463 14.08150794677596

Track FENGYUN 1C DEB in real time with AllMySat

Download on the App Store